Regional Weather Roundup
Issued by NWS State College, PA

Home | Current Version | Previous Version | Graphics & Text | Print | Product List | Glossary Off
Versions: 1 2 3 4 5 6 7 8 9 10 11 12 13 14 15 16 17 18 19 20 21 22 23 24 25 26 27 28 29 30 31 32 33 34 35 36 37 38 39 40 41 42 43 44 45 46 47 48 49 50

000
ASUS41 KCTP 302003
RWRCTP

REGIONAL WEATHER ROUNDUP
NATIONAL WEATHER SERVICE STATE COLLEGE PA
400 PM EDT THU OCT 30 2014

Note: "fair" indicates few or no clouds below 12,000 feet with no
significant weather and/or obstructions to visibility.

* = STATION THAT DOES NOT REPORT PRECIPITATION /E.G. RAIN...SNOW...ETC/
    THUNDER OR FOG.

PAZ002>004-007>009-013>016-020>023-029>032-302100-
WESTERN PENNSYLVANIA

CITY           SKY/WX    TMP DP  RH WIND       PRES   REMARKS
ERIE           LGT RAIN  48  38  68 CALM      30.07S
MEADVILLE      CLOUDY    46  37  71 NW5       30.05S
FRANKLIN*      CLOUDY    45  34  65 NW5       30.06S
NEW CASTLE       N/A     49  37  63 CALM      30.07F
BEAVER COUNTY  CLOUDY    48  36  61 W3        30.06F
BUTLER*        CLOUDY    46  36  66 N3        30.07F
PITTSBURGH INT CLOUDY    48  36  63 W9        30.05F
PITTSBURGH     CLOUDY    49  33  54 CALM      30.05S
INDIANA*       NOT AVBL
LATROBE        CLOUDY    48  37  66 W9        30.07F
WASHINGTON CO* CLOUDY    50  34  53 W3        30.07S
$$

PAZ004>006-010>012-017>019-024>028-033>037-041-042-045-046-049>053-302100-
CENTRAL PENNSYLVANIA

CITY           SKY/WX    TMP DP  RH WIND       PRES   REMARKS
BRADFORD       CLOUDY    43  33  68 NW8       30.02S
DUBOIS         CLOUDY    49  35  58 W8        30.02F
CLEARFIELD     MOSUNNY   51  33  50 W9        30.02F
JOHNSTOWN      CLOUDY    43  34  70 NW10      30.02S
ALTOONA        CLOUDY    48  35  60 NW9       30.03S
STATE COLLEGE  CLOUDY    50  34  53 NW8       30.02S
WILLIAMSPORT   CLOUDY    53  33  46 N8        30.01S
SELINSGROVE    CLOUDY    53  34  48 CALM      30.02S
FT INDIANTOWN  PTSUNNY   54  34  47 VRB2      30.01S
CAPITAL CITY   CLOUDY    55  37  50 NW8       30.02F
HARRISBURG     PTSUNNY   57  38  48 NW9       30.01F
YORK           CLOUDY    54  36  50 NW6       30.02S
$$

PAZ038>040-043-044-047-048-054-055-060>062-067>071-302100-
EASTERN PENNSYLVANIA

CITY           SKY/WX    TMP DP  RH WIND       PRES   REMARKS
SCRANTON       CLOUDY    50  33  52 N8        30.01S
MOUNT POCONO   CLOUDY    44  32  62 NW10      29.98S
ALLENTOWN      CLOUDY    55  34  45 NW10      30.00S
QUAKERTOWN*    MOCLDY    54  36  50 NW7       30.00S
READING        PTSUNNY   55  36  48 N8        30.00R
LANCASTER      CLOUDY    54  37  52 NW7       30.01S
COATESVILLE    MOCLDY    54  39  58 NW9       30.00F
POTTSTOWN      CLOUDY    55  35  47 NW8       30.01S
BLUE BELL      PTSUNNY   55  36  47 W6        29.98S
DOYLESTOWN     MOSUNNY   56  36  47 NW8       29.98S
WILLOW GROVE   NOT AVBL
NORTH PHILA    PTSUNNY   58  35  42 N14       30.00S
PHILADELPHIA   PTSUNNY   58  35  42 NW9       29.99F
$$



USA.gov is the U.S. government's official web portal to all federal, state and local government web resources and services.